STARLINK-1784

operational
NORAD ID: 46687 Int'l Des: 2020-073 Owner: SPXS Country: US Constellation: starlink
LEOCIRCULARSTARLINK_TYPE

Über STARLINK-1784

Beschreibung wird geladen...

Live-Position

3D-Globus wird geladen...

Nächste Überflüge

Höhenverlauf

Altitude vs Time

uPlot chart will show altitude changes over time

Zweizeiliger Elementsatz

1 46687U 20073T 25251.47074658 .00005115 00000-0 36196-3 0 9999
2 46687 53.0543 319.6335 0001459 85.6081 274.5074 15.06406029269942
Epoch: 8. Sept. 2025 • Age: 23 hours

Aktueller Status

Höhe 548.2 km
Geschwindigkeit 7.59 km/s
Subsatellitenpunkt 29.90°N, 32.08°W
Startdatum 18. Okt. 2020
Alter 4.8 years
Typ internet

Technische Details

Klassifizierung Payload
Masse 260.00 kg
Trockenmasse 248.00 kg
Gesamtmasse 260.00 kg
Länge 0.20 m
Durchmesser 2.80 m
Spannweite 9.00 m
Form Box + pan
Hersteller SPXS
Bus-Typ Starlink
Phasenstatus In Orbit
Besitzer/Staat SPXS/US

Große Konstellationen

Loading constellations...